sat.trackr.live / text

‹ back to catalog

HULIANWANG DIGUI-149

NORAD 67525 · 2026-013D

PAYLOAD ACTIVE UNKNOWN

§ Identity

Operator
Country
PRC
Launch date
2026-01-19
Launch site
WSC
Launch vehicle
Mass (kg)
RCS (m²)

External: N2YO · Heavens-Above · Gunter

§ Orbital elements

Epoch: 2026-09-20T14:40:45.112800Z

Period
108.33 min
Inclination
50.0108°
Eccentricity
0.0000888
Mean motion
13.29329367 rev/d
Perigee alt
1,148.6 km
Apogee alt
1,150.0 km
Semi-major
7,527.4 km
B*
4.1930e-5
RAAN
13.4685°
Arg perigee
97.6956°
Mean anomaly
262.4017°
Rev number
3,274

§ Raw data

HULIANWANG DIGUI-1491 67525U 26013D   26263.61163325 -.00000105  00000+0  41930-4 0  99902 67525  50.0108  13.4685 0000888  97.6956 262.4017 13.29329367 32747

JSON: /api/v1/satellites/67525 · /tle

For live sub-satellite position, see the globe view (requires WebGL).

§ Visibility from observer

Set your observer location to see the next 7 days of passes ≥ 10°. The values pass through the URL so the page stays shareable.

No JS? Fill the form by hand. The geolocation button needs JavaScript.